This is the latest recevied weather packets stored in our database for station/object N3WPH. If no packets are shown the sender has not sent any weather packets the latest 10 day(s).
| Time | Temp. | Humidity | Pressure | Rain* | Wind** | Luminosity | Snow |
|---|---|---|---|---|---|---|---|
| 1778017000 | 24.44° C | 41% | 1007 hPa | 0 mm | - | 47 W/m² | - |
| 1778016697 | 24.44° C | 41% | 1007 hPa | 0 mm | - | 23 W/m² | - |
| 1778016393 | 24.44° C | 39% | 1006.9 hPa | 0 mm | - | 16 W/m² | - |
| 1778016091 | 25° C | 39% | 1006.9 hPa | 0 mm | - | 12 W/m² | - |
| 1778015787 | 25° C | 37% | 1006.7 hPa | 0 mm | - | 22 W/m² | - |
| 1778015485 | 25° C | 37% | 1006.7 hPa | 0 mm | - | 32 W/m² | - |
| 1778015181 | 25° C | 37% | 1006.6 hPa | 0 mm | - | 78 W/m² | - |
| 1778014878 | 25.56° C | 37% | 1006.4 hPa | 0 mm | - | 84 W/m² | - |
| 1778014575 | 25.56° C | 37% | 1006.7 hPa | 0 mm | - | 149 W/m² | - |
| 1778014273 | 25° C | 39% | 1006.6 hPa | 0 mm | - | 212 W/m² | - |
| 1778013970 | 24.44° C | 40% | 1006.7 hPa | 0 mm | - | 76 W/m² | - |
| 1778013668 | 25° C | 40% | 1006.7 hPa | 0 mm | - | 40 W/m² | - |
| 1778013364 | 25° C | 37% | 1006.7 hPa | 0 mm | - | 24 W/m² | - |
| 1778013061 | 25° C | 37% | 1006.6 hPa | 0 mm | - | 55 W/m² | - |
| 1778012757 | 25° C | 36% | 1006.5 hPa | 0 mm | - | 47 W/m² | - |
| 1778012453 | 25.56° C | 36% | 1006.5 hPa | 0 mm | - | 73 W/m² | - |
| 1778012150 | 25.56° C | 35% | 1006.5 hPa | 0 mm | - | 90 W/m² | - |
| 1778011848 | 25.56° C | 35% | 1006.6 hPa | 0 mm | - | 128 W/m² | - |
| 1778011545 | 25.56° C | 35% | 1006.2 hPa | 0 mm | - | 134 W/m² | - |
| 1778011242 | 25.56° C | 35% | 1006.3 hPa | 0 mm | - | 117 W/m² | - |
| 1778010938 | 26.11° C | 35% | 1006.2 hPa | 0 mm | - | 177 W/m² | - |
| 1778010636 | 26.11° C | 34% | 1006.4 hPa | 0 mm | - | 197 W/m² | - |
| 1778010333 | 26.67° C | 34% | 1006.2 hPa | 0 mm | - | 249 W/m² | - |
| 1778010028 | 27.78° C | 33% | 1006.6 hPa | 0 mm | - | 339 W/m² | - |
| 1778009726 | 27.78° C | 33% | 1006.4 hPa | 0 mm | - | 670 W/m² | - |
* Rain latest hour (hover to see other rain measurements)
** Current wind speed in m/s (hover to see current wind gust speed)